Zurück zum Katalog

STARLINK-31233

AktivKommunikationVLEO
NORAD 58826·PAYLOAD·🇺🇸 United States

Gestartet Jan 24, 2024 von Vandenberg Space Force Base

Loading…

Nächste Überflüge (nächste 24 Stunden)

TLE

AktuellSource: CelesTrak SupGP

Epoche: Sep 15, 2026, 03:00 UTC

1 58826C 24017A   26258.12548611 -.00007279  00000+0 -21499-3 0  2586
2 58826  53.1605  42.8166 0001015  75.1466 234.3096 15.34402924    16

Verfolge STARLINK-31233 in Echtzeit mit AllMySat

Download on the App Store